sat.trackr.live / text

‹ back to catalog

STARLINK-32247

NORAD 60446 · 2024-144X

PAYLOAD ACTIVE UNKNOWN

§ Identity

Operator
Country
US
Launch date
2024-08-12
Launch site
AFETR
Launch vehicle
Mass (kg)
RCS (m²)

Purposes: comms

External: N2YO · Heavens-Above · Gunter

§ Orbital elements

Epoch: 2026-09-21T15:50:07.814688Z

Period
93.78 min
Inclination
53.1616°
Eccentricity
0.0002200
Mean motion
15.35546312 rev/d
Perigee alt
457.8 km
Apogee alt
460.8 km
Semi-major
6,837.4 km
B*
1.3668e-3
RAAN
13.9185°
Arg perigee
25.8980°
Mean anomaly
334.2133°
Rev number
11,953

§ Raw data

STARLINK-322471 60446U 24144X   26264.65981267  .00047824  00000+0  13668-2 0  99992 60446  53.1616  13.9185 0002200  25.8980 334.2133 15.35546312119530

JSON: /api/v1/satellites/60446 · /tle

For live sub-satellite position, see the globe view (requires WebGL).

§ Visibility from observer

Set your observer location to see the next 7 days of passes ≥ 10°. The values pass through the URL so the page stays shareable.

No JS? Fill the form by hand. The geolocation button needs JavaScript.